DELTA 1 DEB, 21289

Orbit data source: Space-Track

DELTA 1 DEB, 21289 is space debris in SSO originally from a launch on Thu, 12 Jun 1975 UTC launched from the Air Force Western Test Range (AFWTR). Debris objects in space refer to the collection of defunct objects orbiting the Earth. Examples of debris include non-operational satellites, rocket bodies, and fragments generated from explosions, collisions, or faulty payload assembly.

Loading next visibility...
Identifier
21289, 1975-052AA
Orbit
SSO
Country
Flag of USUS
Related business
Manufacturer
Unknown
Mission
Spacecraft
Bus & Motor
Unknown
Mass
Unknown
Launch date (UTC)
1975-06-12 (51 years ago)
Launch vehicle
Unknown
Launch site
Air Force Western Test Range (AFWTR)
Object type
Payload
Rocket body
Debris
Shape & HBR
Unknown shape, 0.1 m
Radar Cross Section
Small (<0.1 m²)

Expand to show TLE details & history
Last TLE update: 14 hours ago

TLE from 14 hours ago
0 DELTA 1 DEB
1 21289U 75052AA  25353.98174942  .00000083  00000-0  34938-3 0  9994
2 21289  99.8747 351.3418 0247368  54.4273   2.6215 12.99983598641266
Epoch: 2025-12-19T23:33Z
TLE epoch observation values (Epoch: 2025-12-19T23:33:43.149Z)
Latitude
55.98666°
Longitude
-105.77227°
Altitude
1,082.541 km
Speed
7.406 km/s
True Right ascension
22h 25m 53s
True Declination
55° 50' 02"
Sunlit
Object was in daylight at epoch
Visualization orbit readout
Latitude
Unknown
Longitude
Unknown
Altitude
Unknown
Speed
Unknown
Apparent Right ascension
Unknown
Apparent Declination
Unknown
Sunlit
N/A
Visualization observer readout
Local Sidereal Time
12:41:06
Azimuth
Unknown
Elevation
Unknown
Doppler factor
Unknown
Orbital elements
Apogee altitude
1,448.461 km
Perigee altitude
1,070.598 km
Semi-major axis
7,637.667 km
Eccentricity
0.02474
Inclination
99.8747°
RAAN
351.3418°
Arg. of periapsis
54.4273°
True anomaly
2.75528°
Mean anomaly
2.6215°
Eccentric anomaly
2.68797°
Mean motion
3.25164 °/min
Orbital period
110.71 mins
BSTAR
0.00034938
Loading maneuver chart data...
Computing Atmospheric mass density...
Loading historical data...
Loading historical data...
Loading historical data...
Loading historical data...
Loading historical data...
Loading historical data...
Loading historical data...

Documentation

Showing up to 5 results
|